Location: Burgerwiesen
(48.6500°N, 15.6167°E)
Time: 09:23:01
(UTC+00:00)

Cosmos 2322 Rocket - Pass Details

Date: 09 April 2020
Orbit: 834 x 849 km, 71.0° (Epoch: 25 May)

Event Time Altitude Azimuth Distance (km) Brightness Sun altitude
Rises 23:19:53 0° 324° (NW) 3,403 6.0 -33.1°
Reaches altitude 10° 23:22:35 10° 315° (NW) 2,461 5.0 -33.1°
Enters shadow 23:24:50 21° 297° (WNW) 1,803 4.0 -33.0°
